YAOGAN 17B

导读 | 豆包AI

YAOGAN 17B(遥感十七B卫星)是中国于2013年9月1日8时发射的遥感卫星,隶属于中国遥感卫星系列。遥感卫星系列主要用于国土资源普查、农业估产、灾害监测与测绘等领域,可获取地球表面多维度观测数据,服务国民经济建设,同时开展空间科学技术试验验证,推动中国航天遥感技术持续发展,提升中国对地观测能力与空间应用水平。

Basic Information
目录编号:
39240
目录名称:
YAOGAN 17B
国际标识:
2013-046B
轨道中心:
EARTH
卫星名称:
YAOGAN 17B
卫星全名:
--
卫星状态:
在轨 (已飞行4624 天)
发射日期:
2013-09-01 UTC
国别 :
中国 (CN)
星等 :
--
Orbit Information
数据来源 国际轨道数据 AOE轨道数据
星历时间 2026-04-30T21:24:22+0800
5小时前
查看轨道信息
2026-04-28T17:00:00+0800
2天前
查看轨道信息
半长轴 7467.121km 7467.1km
偏心率 0.0422167 0.0420903
轨道倾角 63.388° 63.392°
近地点辐角 11.175° 11.212°
升交点赤经 213.703° 219.335°
平近点角 349.830° 213.189°
近地点 773.746km 774.67km
远地点 1404.222km 1403.256km
周期 107.026分钟 107.026分钟
每日圈数 13.45467 13.454727
Detailed Information
使用方式:
暂无
2D Orbit Map
3D Orbit Map
Orbit Altitude Analysis Chart
Orbit Inclination Analysis Chart
Orbit Comprehensive Analysis Chart
View Comprehensive Chart